| time (UTC) | temp F | wind direction | speed knots | gust knots | rain 1hr in | rain 24hr in | rain mn in | humidity % | barometer mb |
| 20260510023059 | 59 | 283 | 1.7 | 6.1 | 0.00 | 0.00 | 0.00 | 77 | 995.9 |
| 20260510021552 | 58 | 281 | 2.6 | 7.8 | 0.00 | 0.00 | 0.00 | 76 | 996.1 |
| 20260510020050 | 58 | 250 | 2.6 | 6.1 | 0.00 | 0.00 | 0.00 | 78 | 996.3 |
| 20260510014649 | 58 | 291 | 3.5 | 9.6 | 0.00 | 0.00 | 0.00 | 78 | 996.5 |
| 20260510013100 | 58 | 250 | 2.6 | 5.2 | 0.00 | 0.00 | 0.00 | 78 | 996.6 |
| 20260510011548 | 58 | 307 | 1.7 | 5.2 | 0.00 | 0.00 | 0.00 | 78 | 996.9 |
| 20260510010046 | 57 | 330 | 1.7 | 4.3 | 0.00 | 0.00 | 0.00 | 78 | 996.9 |
| 20260510004547 | 56 | 250 | 0.9 | 6.1 | 0.00 | 0.00 | 0.00 | 79 | 996.9 |
| 20260510003041 | 56 | 139 | 0.9 | 4.3 | 0.00 | 0.00 | 0.00 | 81 | 997.0 |
| 20260510001539 | 56 | 319 | 1.7 | 4.3 | 0.00 | 0.00 | 0.00 | 82 | 997.0 |
| 20260510000037 | 55 | 225 | 0.0 | 3.5 | 0.00 | 0.00 | 0.00 | 84 | 996.9 |
| 20260509234535 | 54 | 195 | 0.9 | 3.5 | 0.00 | 0.00 | 0.00 | 85 | 997.0 |
| 20260509233031 | 54 | 303 | 0.0 | 0.9 | 0.00 | 0.00 | 0.00 | 90 | 997.0 |
| 20260509231528 | 52 | 96 | 0.0 | 0.9 | 0.00 | 0.00 | 0.00 | 93 | 997.0 |
| 20260509230024 | 51 | 98 | 0.0 | 1.7 | 0.00 | 0.00 | 0.00 | 93 | 996.9 |
| 20260509224523 | 50 | 115 | 0.9 | 2.6 | 0.00 | 0.00 | 0.00 | 92 | 996.8 |
| 20260509223022 | 49 | 109 | 0.9 | 2.6 | 0.00 | 0.00 | 0.00 | 93 | 996.7 |
| 20260509221520 | 49 | 82 | 0.9 | 2.6 | 0.00 | 0.00 | 0.00 | 93 | 996.5 |
| 20260509220018 | 48 | 79 | 0.9 | 2.6 | 0.00 | 0.00 | 0.00 | 94 | 996.4 |
| 20260509214516 | 48 | 77 | 0.9 | 2.6 | 0.00 | 0.00 | 0.00 | 95 | 996.2 |
| 20260509213014 | 47 | 94 | 0.0 | 0.9 | 0.00 | 0.00 | 0.00 | 96 | 996.0 |
| 20260509211516 | 46 | 197 | 0.0 | 0.0 | 0.00 | 0.00 | 0.00 | 96 | 995.8 |
| 20260509210015 | 46 | 196 | 0.0 | 0.0 | 0.00 | 0.00 | 0.00 | 95 | 995.7 |
| 20260509204513 | 46 | 196 | 0.0 | 0.0 | 0.00 | 0.00 | 0.00 | 95 | 995.6 |
| 20260509203011 | 46 | 85 | 0.0 | 0.0 | 0.00 | 0.00 | 0.00 | 95 | 995.5 |
| 20260509201506 | 47 | 83 | 0.0 | 0.0 | 0.00 | 0.00 | 0.00 | 94 | 995.3 |
| 20260509200005 | 47 | 84 | 0.0 | 0.0 | 0.00 | 0.00 | 0.00 | 95 | 995.2 |
| 20260509194504 | 47 | 84 | 0.0 | 0.0 | 0.00 | 0.00 | 0.00 | 94 | 995.0 |
| 20260509193004 | 48 | 83 | 0.0 | 0.9 | 0.00 | 0.00 | 0.00 | 94 | 994.8 |
| 20260509191600 | 48 | 109 | 0.0 | 0.9 | 0.00 | 0.00 | 0.00 | 93 | 994.7 |
| 20260509190058 | 49 | 91 | 0.0 | 0.9 | 0.00 | 0.00 | 0.00 | 93 | 994.5 |
| 20260509184558 | 50 | 98 | 0.0 | 1.7 | 0.00 | 0.00 | 0.00 | 94 | 994.3 |
| 20260509183056 | 50 | 122 | 0.0 | 2.6 | 0.00 | 0.00 | 0.00 | 94 | 994.3 |
| 20260509181556 | 49 | 131 | 1.7 | 3.5 | 0.00 | 0.00 | 0.00 | 94 | 994.3 |
| 20260509180055 | 49 | 96 | 0.0 | 1.7 | 0.00 | 0.00 | 0.00 | 95 | 994.2 |
| 20260509174554 | 49 | 105 | 1.7 | 3.5 | 0.00 | 0.00 | 0.00 | 95 | 994.2 |
| 20260509173116 | 49 | 76 | 0.0 | 2.6 | 0.00 | 0.00 | 0.00 | 95 | 994.2 |
| 20260509171551 | 49 | 91 | 0.0 | 0.0 | 0.00 | 0.00 | 0.00 | 95 | 994.3 |
| 20260509170057 | 50 | 91 | 0.0 | 0.0 | 0.00 | 0.00 | 0.00 | 94 | 994.3 |
| 20260509164557 | 50 | 84 | 0.0 | 0.9 | 0.00 | 0.00 | 0.00 | 95 | 994.3 |
| 20260509163051 | 50 | 116 | 0.0 | 0.9 | 0.00 | 0.00 | 0.00 | 95 | 994.4 |
| 20260509161548 | 50 | 127 | 0.0 | 2.6 | 0.00 | 0.00 | 0.00 | 96 | 994.4 |
| 20260509160049 | 49 | 95 | 0.0 | 0.0 | 0.00 | 0.00 | 0.00 | 96 | 994.4 |
| 20260509154547 | 50 | 94 | 0.0 | 0.0 | 0.00 | 0.00 | 0.00 | 96 | 994.3 |
| 20260509153044 | 50 | 142 | 0.0 | 0.0 | 0.00 | 0.00 | 0.00 | 96 | 994.3 |
| 20260509151555 | 51 | 211 | 0.0 | 0.9 | 0.00 | 0.00 | 0.00 | 97 | 994.4 |
| 20260509150046 | 50 | 224 | 0.0 | 3.5 | 0.00 | 0.00 | 0.00 | 97 | 994.4 |
| 20260509144538 | 47 | 79 | 0.0 | 0.9 | 0.00 | 0.00 | 0.00 | 96 | 994.3 |
| 20260509143041 | 48 | 82 | 0.0 | 0.9 | 0.00 | 0.00 | 0.00 | 97 | 994.3 |
| 20260509141535 | 47 | 83 | 0.0 | 0.0 | 0.00 | 0.00 | 0.00 | 96 | 994.4 |
| 20260509140031 | 47 | 86 | 0.0 | 0.0 | 0.00 | 0.00 | 0.00 | 95 | 994.5 |
| 20260509134530 | 47 | 84 | 0.0 | 0.0 | 0.00 | 0.00 | 0.00 | 95 | 994.5 |
| 20260509133127 | 48 | 85 | 0.0 | 0.0 | 0.00 | 0.00 | 0.00 | 95 | 994.5 |
| 20260509131532 | 48 | 79 | 0.0 | 0.9 | 0.00 | 0.00 | 0.00 | 95 | 994.5 |
| 20260509130051 | 48 | 231 | 0.0 | 3.5 | 0.00 | 0.00 | 0.00 | 95 | 994.5 |
| 20260509124531 | 49 | 98 | 0.0 | 0.9 | 0.00 | 0.00 | 0.00 | 95 | 994.4 |
| 20260509123030 | 48 | 159 | 0.0 | 0.9 | 0.00 | 0.00 | 0.00 | 95 | 994.5 |
| 20260509121521 | 48 | 129 | 0.0 | 0.0 | 0.00 | 0.00 | 0.00 | 95 | 994.4 |
| 20260509120028 | 49 | 130 | 0.0 | 0.9 | 0.00 | 0.00 | 0.00 | 94 | 994.5 |
| 20260509114520 | 49 | 103 | 0.0 | 0.0 | 0.00 | 0.00 | 0.00 | 94 | 994.4 |
| 20260509113018 | 49 | 91 | 0.0 | 0.9 | 0.00 | 0.00 | 0.00 | 94 | 994.4 |
| 20260509111518 | 50 | 97 | 0.0 | 1.7 | 0.00 | 0.00 | 0.00 | 95 | 994.3 |
| 20260509110019 | 49 | 96 | 0.9 | 2.6 | 0.00 | 0.00 | 0.00 | 95 | 994.3 |
| 20260509104516 | 49 | 97 | 0.0 | 0.0 | 0.00 | 0.00 | 0.00 | 96 | 994.2 |
| 20260509103014 | 49 | 98 | 0.0 | 0.0 | 0.00 | 0.00 | 0.00 | 95 | 994.1 |
| 20260509101517 | 49 | 97 | 0.0 | 0.0 | 0.00 | 0.00 | 0.00 | 94 | 994.1 |
| 20260509100012 | 50 | 99 | 0.0 | 0.0 | 0.00 | 0.00 | 0.00 | 93 | 994.0 |
| 20260509094514 | 51 | 96 | 0.0 | 0.9 | 0.00 | 0.00 | 0.00 | 95 | 994.0 |
| 20260509093010 | 51 | 110 | 0.0 | 0.9 | 0.00 | 0.00 | 0.00 | 93 | 993.9 |
| 20260509091511 | 51 | 262 | 0.0 | 0.0 | 0.00 | 0.00 | 0.00 | 92 | 993.8 |
| 20260509090008 | 52 | 258 | 0.0 | 0.9 | 0.00 | 0.00 | 0.00 | 91 | 993.7 |
| 20260509084506 | 53 | 290 | 0.0 | 0.0 | 0.00 | 0.00 | 0.00 | 90 | 993.6 |
| 20260509083005 | 54 | 296 | 0.0 | 0.9 | 0.00 | 0.00 | 0.00 | 89 | 993.4 |
| 20260509081506 | 54 | 297 | 0.0 | 0.9 | 0.00 | 0.00 | 0.00 | 88 | 993.2 |
| 20260509080004 | 55 | 322 | 0.0 | 3.5 | 0.00 | 0.00 | 0.00 | 87 | 993.0 |
| 20260509074503 | 55 | 188 | 0.9 | 3.5 | 0.00 | 0.00 | 0.00 | 87 | 992.9 |
| 20260509073002 | 56 | 274 | 2.6 | 6.1 | 0.00 | 0.00 | 0.00 | 87 | 992.6 |
| 20260509071501 | 56 | 236 | 0.0 | 4.3 | 0.00 | 0.00 | 0.00 | 87 | 992.4 |
| 20260509070002 | 56 | 248 | 0.0 | 4.3 | 0.00 | 0.00 | 0.00 | 87 | 992.3 |
| 20260509064501 | 58 | 289 | 0.9 | 4.3 | 0.00 | 0.00 | 0.00 | 85 | 992.2 |
| 20260509063101 | 58 | 275 | 0.9 | 5.2 | 0.00 | 0.00 | 0.00 | 84 | 992.2 |
| 20260509061608 | 59 | 267 | 0.9 | 6.1 | 0.00 | 0.00 | 0.00 | 81 | 992.1 |
| 20260509060058 | 59 | 207 | 3.5 | 7.0 | 0.00 | 0.00 | 0.00 | 81 | 992.0 |
| 20260509054611 | 59 | 338 | 3.5 | 9.6 | 0.00 | 0.00 | 0.00 | 81 | 991.9 |
| 20260509053104 | 59 | 239 | 4.3 | 9.6 | 0.00 | 0.00 | 0.00 | 81 | 991.9 |
| 20260509051603 | 59 | 212 | 5.2 | 9.6 | 0.00 | 0.00 | 0.00 | 80 | 991.8 |
| 20260509050053 | 59 | 229 | 1.7 | 10.4 | 0.00 | 0.00 | 0.00 | 82 | 991.9 |
| 20260509044602 | 60 | 270 | 4.3 | 9.6 | 0.00 | 0.00 | 0.00 | 80 | 991.9 |
| 20260509043049 | 60 | 228 | 0.9 | 7.8 | 0.00 | 0.00 | 0.00 | 81 | 991.9 |
| 20260509041548 | 60 | 278 | 4.3 | 13.0 | 0.00 | 0.00 | 0.00 | 80 | 991.9 |
| 20260509040046 | 59 | 275 | 1.7 | 11.3 | 0.00 | 0.00 | 0.00 | 81 | 991.9 |
| 20260509034543 | 59 | 252 | 3.5 | 9.6 | 0.00 | 0.00 | 0.00 | 81 | 992.0 |
| 20260509033042 | 59 | 231 | 1.7 | 10.4 | 0.00 | 0.00 | 0.00 | 80 | 992.0 |
| 20260509031553 | 59 | 243 | 6.1 | 12.2 | 0.00 | 0.00 | 0.00 | 80 | 992.3 |
| 20260509030038 | 59 | 224 | 7.0 | 12.2 | 0.00 | 0.00 | 0.00 | 81 | 992.5 |
| 20260509024537 | 59 | 214 | 2.6 | 8.7 | 0.00 | 0.00 | 0.00 | 81 | 992.6 |